Terug naar catalogus

OPS 7724

ActiefNavigatieHEO
NORAD 6791·PAYLOAD·🇺🇸 United States

Gelanceerd Aug 21, 1973 vanaf Vandenberg Space Force Base

Loading…

Volgende Passages (komende 24 uur)

TLE

VersSource: Space-Track

Epoch: Sep 13, 2026, 09:15 UTC

1 06791U 73056A   26256.38605959  .00000330  00000-0  34049-3 0  9999
2 06791  62.8903  11.0076 7342705 281.5631  11.2132  2.00658493 51386

Volg OPS 7724 in realtime met AllMySat

Download on the App Store